Atmospheric History
08/03/2012 02:14  to  8/4/2012 02:14
Change End Date:
To complete the export process:
1) Select all of the data below
2) Copy the data to the clipboard
3) Open a word processor such as Notepad
4) Paste the data into the word processor
5) Save the file

Date/Time (MDT), AirTemp, RH, Dewpoint ,AvgWindSpeed, GustWindSpeed, WindDirection, PrecipType, PrecipIntensity, PrecipAccumulation, PrecipRate ,Visibility
08/04/2012 02:12, 47, 63 , 35 ,7, 9, NW, None, None , 0, 0 ,6560
08/04/2012 02:02, 49, 60 , 36 ,6, 9, NW, None, None , 0, 0 ,6560
08/04/2012 01:52, 48, 60 , 35 ,7, 10, NW, None, None , 0, 0 ,6560
08/04/2012 01:49, 48, 60 , 35 ,9, 10, NW, None, None , 0, 0 ,6560
08/04/2012 01:42, 48, 60 , 35 ,7, 11, NW, None, None , 0, 0 ,6560
08/04/2012 01:32, 49, 58 , 35 ,7, 12, NW, None, None , 0, 0 ,6560
08/04/2012 01:31, 50, 57 , 35 ,7, 12, W, None, None , 0, 0 ,6560
08/04/2012 01:22, 51, 56 , 35 ,7, 16, NW, None, None , 0, 0 ,6560
08/04/2012 01:19, 51, 56 , 35 ,9, 16, NW, None, None , 0, 0 ,6560
08/04/2012 01:12, 49, 58 , 36 ,6, 11, W, None, None , 0.01, 0 ,6560
08/04/2012 01:02, 49, 58 , 35 ,5, 7, NW, None, None , 0.02, 0 ,6560
08/04/2012 01:01, 49, 58 , 35 ,4, 7, NW, None, None , 0.02, 0 ,6560
08/04/2012 00:52, 50, 55 , 35 ,6, 9, W, None, None , 0.02, 0 ,6560
08/04/2012 00:49, 50, 56 , 35 ,4, 9, W, None, None , 0.02, 0 ,6560
08/04/2012 00:42, 50, 57 , 35 ,4, 7, NW, None, None , 0.02, 0 ,6560
08/04/2012 00:32, 50, 57 , 35 ,6, 9, NW, None, None , 0.02, 0 ,6560
08/04/2012 00:22, 50, 58 , 36 ,6, 9, NW, None, None , 0.02, 0 ,6560
08/04/2012 00:19, 50, 58 , 36 ,6, 9, NW, None, None , 0.02, 0 ,6560
08/04/2012 00:12, 50, 58 , 36 ,6, 11, NW, None, None , 0.02, 0 ,6560
08/04/2012 00:02, 51, 56 , 36 ,10, 17, N, None, None , 0.02, 0 ,6560
08/03/2012 23:52, 51, 56 , 36 ,11, 15, N, None, None , 0.02, 0 ,6560
08/03/2012 23:49, 51, 56 , 36 ,10, 16, N, None, None , 0.02, 0 ,6560
08/03/2012 23:42, 52, 55 , 36 ,12, 17, N, None, None , 0.02, 0 ,6560
08/03/2012 23:32, 52, 55 , 36 ,12, 16, N, None, None , 0.02, 0 ,6560
08/03/2012 23:31, 52, 55 , 36 ,12, 16, N, None, None , 0.02, 0 ,6560
08/03/2012 23:21, 52, 54 , 36 ,12, 19, N, None, None , 0.02, 0 ,6560
08/03/2012 23:19, 52, 54 , 36 ,12, 19, N, None, None , 0.02, 0 ,6560
08/03/2012 23:11, 52, 55 , 36 ,9, 16, N, None, None , 0.02, 0 ,6560
08/03/2012 23:01, 52, 55 , 36 ,11, 19, N, None, None , 0.02, 0 ,6560
08/03/2012 23:01, 52, 55 , 36 ,12, 19, N, None, None , 0.02, 0 ,6560
08/03/2012 22:51, 52, 54 , 36 ,15, 24, N, None, None , 0.02, 0 ,6560
08/03/2012 22:49, 52, 54 , 36 ,13, 24, N, None, None , 0.02, 0 ,6560
08/03/2012 22:41, 52, 54 , 36 ,14, 20, N, None, None , 0.02, 0 ,6560
08/03/2012 22:31, 52, 53 , 36 ,15, 21, N, None, None , 0.02, 0 ,6560
08/03/2012 22:21, 52, 51 , 35 ,12, 19, N, None, None , 0.02, 0 ,6560
08/03/2012 22:19, 52, 50 , 35 ,12, 19, N, None, None , 0.02, 0 ,6560
08/03/2012 22:11, 53, 49 , 34 ,14, 21, N, None, None , 0.02, 0 ,6560
08/03/2012 22:01, 53, 48 , 34 ,12, 19, N, None, None , 0.02, 0 ,6560
08/03/2012 21:51, 53, 48 , 34 ,13, 21, N, None, None , 0.02, 0 ,6560
08/03/2012 21:49, 53, 47 , 34 ,14, 21, N, None, None , 0.02, 0 ,6560
08/03/2012 21:41, 53, 47 , 34 ,14, 22, N, None, None , 0.02, 0 ,6560
08/03/2012 21:31, 53, 47 , 34 ,17, 22, N, None, None , 0.02, 0 ,6560
08/03/2012 21:31, 53, 47 , 34 ,16, 22, N, None, None , 0.02, 0 ,6560
08/03/2012 21:21, 53, 47 , 34 ,16, 22, N, None, None , 0.02, 0 ,6560
08/03/2012 21:19, 54, 46 , 34 ,15, 19, N, None, None , 0.02, 0 ,6560
08/03/2012 21:11, 54, 46 , 34 ,14, 19, N, None, None , 0.02, 0 ,6560
08/03/2012 21:01, 54, 45 , 33 ,12, 17, N, None, None , 0.02, 0 ,6560
08/03/2012 21:00, 54, 45 , 33 ,12, 17, N, None, None , 0.02, 0 ,6560
08/03/2012 20:51, 54, 43 , 33 ,13, 17, N, None, None , 0.02, 0 ,6560
08/03/2012 20:49, 55, 43 , 33 ,11, 18, N, None, None , 0.02, 0 ,6560
08/03/2012 20:41, 55, 42 , 33 ,14, 18, N, None, None , 0.02, 0 ,6560
08/03/2012 20:31, 56, 40 , 32 ,12, 19, N, None, None , 0.02, 0 ,6560
08/03/2012 20:30, 56, 40 , 32 ,12, 19, N, None, None , 0.02, 0 ,6560
08/03/2012 20:21, 56, 39 , 32 ,12, 19, N, None, None , 0.02, 0 ,6560
08/03/2012 20:19, 56, 39 , 32 ,12, 19, N, None, None , 0.02, 0 ,6560
08/03/2012 20:11, 57, 38 , 32 ,12, 19, N, None, None , 0.02, 0 ,6560
08/03/2012 20:01, 57, 37 , 31 ,14, 20, N, None, None , 0.02, 0 ,6560
08/03/2012 19:51, 58, 36 , 31 ,14, 17, N, None, None , 0.02, 0 ,6560
08/03/2012 19:50, 58, 36 , 31 ,14, 17, N, None, None , 0.02, 0 ,6560
08/03/2012 19:40, 58, 35 , 31 ,11, 18, N, None, None , 0.02, 0 ,6560
08/03/2012 19:31, 59, 35 , 31 ,12, 17, N, None, None , 0.02, 0 ,6560
08/03/2012 19:30, 59, 35 , 31 ,11, 17, N, None, None , 0.02, 0 ,6560
08/03/2012 19:20, 59, 34 , 31 ,11, 17, N, None, None , 0.02, 0 ,6560
08/03/2012 19:19, 59, 34 , 31 ,12, 17, N, None, None , 0.02, 0 ,6560
08/03/2012 19:10, 60, 34 , 31 ,9, 16, N, None, None , 0.02, 0 ,6560
08/03/2012 19:01, 59, 35 , 31 ,9, 18, N, None, None , 0.02, 0 ,6560
08/03/2012 19:00, 59, 35 , 31 ,11, 18, N, None, None , 0.02, 0 ,6560
08/03/2012 18:50, 60, 33 , 31 ,11, 17, N, None, None , 0.02, 0 ,6560
08/03/2012 18:49, 60, 32 , 31 ,12, 17, N, None, None , 0.02, 0 ,6560
08/03/2012 18:40, 61, 32 , 31 ,13, 16, N, None, None , 0.02, 0 ,6560
08/03/2012 18:30, 62, 31 , 31 ,11, 13, N, None, None , 0.02, 0 ,6560
08/03/2012 18:30, 62, 32 , 32 ,11, 13, N, None, None , 0.02, 0 ,6560
08/03/2012 18:20, 60, 33 , 31 ,12, 16, N, None, None , 0.02, 0 ,6560
08/03/2012 18:19, 61, 32 , 31 ,11, 16, N, None, None , 0.02, 0 ,6560
08/03/2012 18:10, 61, 33 , 32 ,12, 20, N, None, None , 0.02, 0 ,6560
08/03/2012 18:00, 61, 32 , 31 ,12, 17, N, None, None , 0.02, 0 ,6560
08/03/2012 18:00, 61, 32 , 31 ,13, 17, N, None, None , 0.02, 0 ,6560
08/03/2012 17:50, 61, 33 , 31 ,15, 19, N, None, None , 0.02, 0 ,6560
08/03/2012 17:49, 61, 33 , 32 ,14, 19, N, None, None , 0.02, 0 ,6560
08/03/2012 17:40, 60, 33 , 31 ,11, 18, N, None, None , 0.02, 0 ,6560
08/03/2012 17:31, 61, 32 , 31 ,12, 18, N, None, None , 0.02, 0 ,6560
08/03/2012 17:30, 60, 33 , 31 ,13, 18, N, None, None , 0.02, 0 ,6560
08/03/2012 17:20, 60, 32 , 31 ,11, 19, N, None, None , 0.02, 0 ,6560
08/03/2012 17:19, 60, 33 , 31 ,12, 19, N, None, None , 0.02, 0 ,6560
08/03/2012 17:10, 59, 33 , 30 ,10, 18, N, None, None , 0.02, 0 ,6560
08/03/2012 17:01, 61, 32 , 31 ,12, 19, N, None, None , 0.02, 0 ,6560
08/03/2012 17:00, 60, 32 , 31 ,11, 19, N, None, None , 0.02, 0 ,6560
08/03/2012 16:50, 61, 32 , 31 ,11, 17, N, None, None , 0.02, 0 ,6560
08/03/2012 16:49, 61, 32 , 31 ,9, 17, N, None, None , 0.02, 0 ,6560
08/03/2012 16:40, 63, 30 , 31 ,11, 22, N, None, None , 0.02, 0 ,6560
08/03/2012 16:30, 61, 30 , 30 ,6, 16, NE, None, None , 0.02, 0 ,6560
08/03/2012 16:30, 61, 29 , 29 ,6, 16, W, None, None , 0.02, 0 ,6560
08/03/2012 16:20, 61, 31 , 31 ,12, 16, N, None, None , 0.02, 0 ,6560
08/03/2012 16:19, 62, 31 , 31 ,13, 16, N, None, None , 0.02, 0 ,6560
08/03/2012 16:10, 63, 31 , 32 ,12, 14, N, None, None , 0.02, 0 ,6560
08/03/2012 16:01, 59, 35 , 31 ,7, 15, N, None, None , 0.02, 0 ,6560
08/03/2012 16:00, 59, 35 , 31 ,9, 16, N, None, None , 0.02, 0 ,6560
08/03/2012 15:49, 59, 35 , 32 ,11, 19, N, None, None , 0.02, 0 ,6560
08/03/2012 15:49, 59, 35 , 32 ,11, 19, N, None, None , 0.02, 0 ,6560
08/03/2012 15:39, 59, 35 , 32 ,12, 22, N, None, None , 0.02, 0 ,6560
08/03/2012 15:30, 59, 36 , 33 ,16, 22, N, None, None , 0.02, 0 ,6560
08/03/2012 15:29, 59, 36 , 33 ,16, 22, N, None, None , 0.02, 0 ,6560
08/03/2012 15:19, 59, 36 , 32 ,15, 21, N, None, None , 0.02, 0 ,6560
08/03/2012 15:19, 60, 35 , 32 ,14, 19, N, None, None , 0.02, 0 ,6560
08/03/2012 15:09, 58, 39 , 33 ,12, 23, N, None, None , 0.02, 0 ,6560
08/03/2012 15:01, 59, 36 , 33 ,16, 23, N, None, None , 0.02, 0 ,6560
08/03/2012 14:59, 59, 36 , 32 ,13, 23, N, None, None , 0.02, 0 ,6560
08/03/2012 14:49, 61, 35 , 33 ,9, 20, NW, None, None , 0.02, 0 ,6560
08/03/2012 14:49, 60, 35 , 33 ,9, 20, NW, None, None , 0.02, 0 ,6560
08/03/2012 14:39, 57, 41 , 33 ,14, 20, N, None, None , 0.02, 0 ,6560
08/03/2012 14:30, 56, 41 , 33 ,14, 24, N, None, None , 0.02, 0 ,6560
08/03/2012 14:29, 56, 41 , 33 ,17, 24, N, None, None , 0.02, 0 ,6560
08/03/2012 14:19, 57, 39 , 33 ,17, 24, N, None, None , 0.02, 0 ,6560
08/03/2012 14:19, 57, 39 , 33 ,18, 24, N, None, None , 0.02, 0 ,6560
08/03/2012 14:09, 59, 40 , 35 ,16, 23, N, None, None , 0.02, 0 ,6560
08/03/2012 14:01, 59, 40 , 35 ,11, 24, N, None, None , 0.02, 0 ,6560
08/03/2012 13:59, 58, 41 , 35 ,12, 24, N, None, None , 0.02, 0 ,6560
08/03/2012 13:49, 62, 28 , 29 ,12, 21, N, None, None , 0.02, 0 ,6560
08/03/2012 13:49, 62, 28 , 29 ,12, 21, N, None, None , 0.02, 0 ,6560
08/03/2012 13:39, 61, 36 , 34 ,8, 19, NE, None, None , 0.02, 0 ,6560
08/03/2012 13:31, 61, 31 , 31 ,7, 18, NW, None, None , 0.02, 0 ,6560
08/03/2012 13:29, 61, 31 , 31 ,6, 18, N, None, None , 0.02, 0 ,6560
08/03/2012 13:19, 60, 32 , 31 ,12, 22, W, None, None , 0.02, 0 ,6560
08/03/2012 13:19, 60, 32 , 31 ,12, 22, W, None, None , 0.02, 0 ,6560
08/03/2012 13:09, 58, 34 , 29 ,16, 19, W, None, None , 0.02, 0 ,6560
08/03/2012 13:01, 57, 35 , 30 ,15, 27, W, None, None , 0.02, 0 ,6560
08/03/2012 12:59, 58, 35 , 30 ,14, 27, W, None, None , 0.02, 0 ,6560
08/03/2012 12:49, 59, 34 , 31 ,17, 29, W, None, None , 0.02, 0 ,6560
08/03/2012 12:49, 59, 34 , 31 ,17, 29, W, None, None , 0.02, 0 ,6560
08/03/2012 12:39, 61, 31 , 31 ,15, 27, NW, None, None , 0.02, 0 ,6560
08/03/2012 12:30, 60, 32 , 30 ,16, 29, W, None, None , 0.02, 0 ,6560
08/03/2012 12:29, 60, 32 , 30 ,22, 29, W, None, None , 0.02, 0 ,6560
08/03/2012 12:19, 59, 36 , 32 ,15, 29, W, None, None , 0.02, 0 ,6560
08/03/2012 12:19, 59, 36 , 32 ,15, 29, W, None, None , 0.02, 0 ,6560
08/03/2012 12:08, 60, 38 , 34 ,15, 23, W, None, None , 0.02, 0 ,6560
08/03/2012 12:00, 58, 44 , 37 ,14, 28, W, None, None , 0.02, 0 ,6560
08/03/2012 11:58, 58, 41 , 35 ,14, 28, W, None, None , 0.02, 0 ,6560
08/03/2012 11:49, 59, 42 , 36 ,14, 22, W, None, None , 0.02, 0 ,6560
08/03/2012 11:48, 59, 42 , 36 ,14, 22, W, None, None , 0.02, 0 ,6560
08/03/2012 11:38, 58, 43 , 36 ,16, 25, W, None, None , 0.02, 0 ,6560
08/03/2012 11:31, 58, 43 , 36 ,18, 27, NW, None, None , 0.02, 0 ,6560
08/03/2012 11:28, 58, 44 , 37 ,22, 27, W, None, None , 0.02, 0 ,6560
08/03/2012 11:19, 57, 46 , 37 ,21, 26, W, None, None , 0.02, 0 ,6560
08/03/2012 11:18, 57, 46 , 37 ,19, 25, W, None, None , 0.02, 0 ,6560
08/03/2012 11:08, 55, 48 , 36 ,19, 23, W, None, None , 0.02, 0 ,6560
08/03/2012 11:00, 57, 52 , 40 ,14, 20, W, None, None , 0.02, 0 ,6560
08/03/2012 10:58, 58, 51 , 40 ,15, 19, W, None, None , 0.02, 0 ,6560
08/03/2012 10:49, 57, 48 , 38 ,15, 22, NW, None, None , 0.02, 0 ,6560
08/03/2012 10:48, 57, 47 , 38 ,17, 24, NW, None, None , 0.02, 0 ,6560
08/03/2012 10:38, 56, 55 , 40 ,16, 25, W, None, None , 0.02, 0 ,6560
08/03/2012 10:31, 55, 56 , 40 ,14, 24, W, None, None , 0.02, 0 ,6560
08/03/2012 10:28, 56, 52 , 39 ,17, 24, W, None, None , 0.02, 0 ,6560
08/03/2012 10:19, 55, 52 , 38 ,17, 22, W, None, None , 0.02, 0 ,6560
08/03/2012 10:18, 55, 55 , 40 ,18, 22, W, None, None , 0.02, 0 ,6560
08/03/2012 10:08, 55, 54 , 39 ,14, 19, W, None, None , 0.02, 0 ,6560
08/03/2012 10:00, 54, 56 , 39 ,12, 19, W, None, None , 0.02, 0 ,6560
08/03/2012 09:58, 55, 55 , 39 ,14, 19, W, None, None , 0.02, 0 ,6560
08/03/2012 09:49, 55, 56 , 40 ,12, 19, W, None, None , 0.02, 0 ,6560
08/03/2012 09:48, 55, 57 , 40 ,13, 19, W, None, None , 0.02, 0 ,6560
08/03/2012 09:38, 55, 57 , 40 ,12, 20, W, None, None , 0.02, 0 ,6560
08/03/2012 09:30, 54, 58 , 39 ,16, 19, W, None, None , 0.02, 0 ,6560
08/03/2012 09:28, 53, 59 , 39 ,14, 19, W, None, None , 0.02, 0 ,6560
08/03/2012 09:19, 53, 60 , 40 ,11, 15, W, None, None , 0.02, 0 ,6560
08/03/2012 09:18, 53, 58 , 39 ,12, 16, W, None, None , 0.02, 0 ,6560
08/03/2012 09:08, 53, 57 , 39 ,12, 16, W, None, None , 0.02, 0 ,6560
08/03/2012 09:00, 53, 61 , 40 ,7, 12, W, None, None , 0.02, 0 ,6560
08/03/2012 08:58, 53, 59 , 39 ,7, 12, W, None, None , 0.02, 0 ,6560
08/03/2012 08:49, 51, 63 , 38 ,7, 12, W, None, None , 0.02, 0 ,6560
08/03/2012 08:48, 51, 61 , 38 ,9, 12, W, None, None , 0.02, 0 ,6560
08/03/2012 08:38, 52, 60 , 38 ,7, 11, W, None, None , 0.02, 0 ,6560
08/03/2012 08:30, 51, 63 , 39 ,7, 11, W, None, None , 0.02, 0 ,6560
08/03/2012 08:28, 50, 63 , 38 ,7, 10, SW, None, None , 0.02, 0 ,6560
08/03/2012 08:19, 49, 69 , 39 ,2, 6, SW, None, None , 0.02, 0 ,6560
08/03/2012 08:17, 49, 70 , 39 ,1, 4, SW, None, None , 0.02, 0 ,6560
08/03/2012 08:07, 50, 63 , 38 ,3, 9, NW, None, None , 0.02, 0 ,6560
08/03/2012 08:01, 50, 63 , 38 ,5, 9, W, None, None , 0.02, 0 ,6560
08/03/2012 07:57, 49, 64 , 38 ,6, 9, W, None, None , 0.02, 0 ,6560
08/03/2012 07:49, 49, 65 , 38 ,7, 11, W, None, None , 0.02, 0 ,6560
08/03/2012 07:47, 49, 67 , 38 ,7, 11, W, None, None , 0.02, 0 ,6560
08/03/2012 07:37, 47, 70 , 38 ,7, 11, NW, None, None , 0.02, 0 ,6560
08/03/2012 07:30, 46, 74 , 38 ,9, 11, NW, None, None , 0.02, 0 ,6560
08/03/2012 07:27, 46, 74 , 38 ,8, 11, NW, None, None , 0.02, 0 ,6560
08/03/2012 07:19, 46, 76 , 39 ,7, 9, NW, None, None , 0.02, 0 ,6560
08/03/2012 07:17, 46, 78 , 39 ,6, 7, NW, None, None , 0.02, 0 ,6560
08/03/2012 07:07, 44, 83 , 39 ,4, 6, NW, None, None , 0.02, 0 ,6560
08/03/2012 07:01, 44, 81 , 39 ,4, 5, W, None, None , 0.02, 0 ,6560
08/03/2012 06:57, 45, 80 , 39 ,4, 5, W, None, None , 0.02, 0 ,6560
08/03/2012 06:49, 44, 82 , 39 ,3, 7, NE, None, None , 0.02, 0 ,6560
08/03/2012 06:47, 44, 82 , 38 ,4, 7, N, None, None , 0.02, 0 ,6560
08/03/2012 06:37, 43, 83 , 38 ,7, 9, E, None, None , 0.02, 0 ,6560
08/03/2012 06:30, 45, 75 , 37 ,2, 5, S, Rain, Slight , 0.02, 0 ,6560
08/03/2012 06:27, 45, 77 , 38 ,1, 6, N, Rain, Slight , 0.02, 0 ,6560
08/03/2012 06:19, 45, 75 , 37 ,5, 7, N, None, None , 0.02, 0 ,6560
08/03/2012 06:17, 45, 75 , 37 ,6, 7, N, None, None , 0.02, 0 ,6560
08/03/2012 06:07, 45, 72 , 37 ,2, 5, N, None, None , 0.02, 0 ,6560
08/03/2012 06:00, 45, 71 , 36 ,3, 11, W, None, None , 0.02, 0 ,6560
08/03/2012 05:57, 45, 72 , 37 ,4, 18, NW, None, None , 0.02, 0 ,6560
08/03/2012 05:49, 45, 70 , 36 ,15, 18, NW, None, None , 0.02, 0 ,6560
08/03/2012 05:47, 45, 70 , 36 ,14, 17, NW, None, None , 0.02, 0 ,6560
08/03/2012 05:37, 45, 71 , 36 ,14, 22, N, None, None , 0.02, 0 ,6560
08/03/2012 05:31, 45, 72 , 36 ,16, 26, N, None, None , 0.02, 0 ,6560
08/03/2012 05:27, 45, 73 , 37 ,19, 26, N, None, None , 0.02, 0 ,6560
08/03/2012 05:19, 45, 76 , 38 ,19, 27, N, None, None , 0.02, 0 ,6560
08/03/2012 05:17, 45, 77 , 38 ,21, 27, N, None, None , 0.02, 0 ,6560
08/03/2012 05:07, 46, 83 , 41 ,15, 21, N, None, None , 0.02, 0 ,6560
08/03/2012 05:01, 46, 82 , 41 ,9, 21, NW, None, None , 0.02, 0 ,6560
08/03/2012 04:57, 47, 82 , 41 ,13, 21, NW, None, None , 0.02, 0 ,6560
08/03/2012 04:49, 46, 83 , 42 ,10, 17, NW, None, None , 0.02, 0 ,6560
08/03/2012 04:46, 46, 83 , 42 ,11, 17, N, None, None , 0.02, 0 ,6560
08/03/2012 04:36, 46, 84 , 41 ,12, 22, N, None, None , 0.02, 0 ,6560
08/03/2012 04:31, 46, 83 , 42 ,16, 22, N, None, None , 0.02, 0 ,6560
08/03/2012 04:26, 47, 82 , 42 ,12, 22, N, None, None , 0.02, 0 ,6560
08/03/2012 04:19, 48, 82 , 43 ,12, 17, NW, None, None , 0.02, 0 ,6560
08/03/2012 04:16, 48, 82 , 43 ,13, 17, N, None, None , 0.02, 0 ,6560
08/03/2012 04:06, 48, 84 , 43 ,7, 11, NW, None, None , 0.02, 0 ,6560
08/03/2012 04:01, 48, 84 , 44 ,6, 8, W, None, None , 0.02, 0 ,6560
08/03/2012 03:56, 48, 86 , 44 ,4, 9, NW, None, None , 0.02, 0 ,6560
08/03/2012 03:49, 48, 84 , 43 ,7, 9, W, None, None , 0.02, 0 ,6560
08/03/2012 03:46, 48, 83 , 43 ,5, 9, W, None, None , 0.02, 0 ,6560
08/03/2012 03:36, 48, 84 , 44 ,5, 9, W, None, None , 0.02, 0 ,6560
08/03/2012 03:31, 49, 84 , 44 ,6, 11, W, None, None , 0.02, 0 ,6560
08/03/2012 03:26, 49, 84 , 44 ,8, 12, NW, None, None , 0.02, 0 ,6560
08/03/2012 03:19, 49, 84 , 44 ,7, 14, W, None, None , 0.02, 0 ,6560
08/03/2012 03:16, 49, 84 , 44 ,10, 14, W, None, None , 0.02, 0 ,6560
08/03/2012 03:06, 49, 82 , 44 ,10, 19, NW, None, None , 0.02, 0 ,6560
08/03/2012 02:56, 49, 83 , 44 ,13, 17, N, None, None , 0.02, 0 ,6560
08/03/2012 02:49, 50, 81 , 44 ,11, 16, N, None, None , 0.02, 0 ,6560
08/03/2012 02:46, 49, 83 , 44 ,13, 16, N, None, None , 0.02, 0 ,6560
08/03/2012 02:36, 49, 83 , 45 ,3, 11, W, None, None , 0.02, 0 ,6560
08/03/2012 02:26, 49, 83 , 44 ,4, 6, W, None, None , 0.02, 0 ,6560
08/03/2012 02:19, 50, 80 , 44 ,2, 3, S, None, None , 0.02, 0 ,6560
08/03/2012 02:16, 50, 82 , 45 ,1, 6, E, None, None , 0.02, 0 ,6560
Change End Date:
Copyright © 1998-2005 Surface Systems, Inc.
All Rights Reserved
Send comments about the data to:
SCAN Web ® is a registered trademark of Surface Systems, Inc.
SCAN Web Version 5.6